Location: Barcelona
(41.3830°N, 2.1830°E)
Time: 01:21:10
(UTC+02:00)

ISS - Pass Details

Date: 17 July 2019
Orbit: 409 x 418 km, 51.6° (Epoch: 23 July)

Event Time Altitude Azimuth Distance (km) Brightness Sun altitude
Rises 00:38:31 0° 267° (W) 2,347 0.3 -24.7°
Reaches altitude 10° 00:40:52 10° 282° (WNW) 1,485 -0.6 -24.9°
Maximum altitude 00:43:39 24° 339° (NNW) 899 -1.4 -25.0°
Drops below altitude 10° 00:46:27 10° 36° (NE) 1,484 -0.6 -25.2°
Sets 00:48:48 0° 50° (NE) 2,346 0.3 -25.3°
